Probability
34 39 38 31 24 23 24 18 13 11 10 8 7 8 12 14 15 12 10 13 16 17 17 16 16 18 16 12 9 5 3 1 1 0 0 0 0 0 0 0 0 0 0
47 47 45 36 29 30 30 24 18 16 14 11 10 13 17 22 24 20 15 14 16 18 19 18 17 17 17 15 12 9 6 4 4 3 2 2 1 0 0 0 0 0 0
56 54 48 40 36 37 38 34 29 25 23 20 19 19 23 28 30 28 21 16 14 16 18 18 16 16 16 16 14 12 10 8 8 8 8 7 4 2 1 0 0 0 0
52 50 45 41 38 38 38 38 37 35 31 28 25 23 24 29 29 28 24 18 15 15 15 15 14 15 16 17 15 13 11 10 11 12 13 12 9 6 3 1 0 0 0
44 44 43 41 39 38 36 34 37 39 33 27 23 20 20 23 24 23 22 19 18 18 15 13 13 14 17 18 16 14 12 12 13 14 14 14 12 9 5 3 1 0 0
40 40 41 41 40 39 35 33 36 35 29 24 19 14 13 15 17 18 18 18 19 20 18 15 13 14 16 16 15 15 14 14 14 13 12 11 10 8 5 3 2 1 0
34 34 35 39 39 37 33 33 33 29 24 21 17 12 8 8 11 14 15 15 16 17 17 15 14 14 14 13 13 14 15 15 13 11 10 8 8 7 5 4 3 2 1
28 27 29 32 34 33 30 28 26 22 18 17 15 11 6 5 7 9 11 12 11 12 13 13 12 13 13 12 12 13 13 12 11 10 9 8 7 7 6 5 4 3 3
24 24 24 25 26 27 26 23 19 17 15 14 13 9 6 4 5 7 8 9 8 9 10 10 10 11 12 10 10 10 9 9 10 10 10 9 8 7 6 6 5 4 4
18 20 20 19 19 21 21 20 17 15 14 13 12 9 6 4 4 5 6 7 8 8 8 8 8 9 8 6 6 5 5 5 6 7 8 8 7 6 6 6 6 5 4
12 14 13 12 13 14 16 15 13 12 11 10 9 7 4 3 2 2 2 4 5 6 6 5 5 4 3 3 3 3 2 1 2 3 4 5 5 4 4 4 4 4 3
10 10 9 7 7 8 9 8 7 6 4 4 4 2 1 1 1 0 0 1 2 3 4 3 2 1 1 1 2 2 1 0 0 1 1 2 2 2 3 3 3 2 1
9 8 7 6 4 4 5 4 4 3 2 1 1 0 0 0 0 0 0 0 1 2 2 1 1 0 0 0 1 1 1 0 0 0 0 1 1 1 1 2 2 1 0
6 6 6 5 4 3 4 4 3 2 2 2 1 0 0 0 0 1 1 0 0 1 1 0 0 0 0 0 0 0 0 0 0 0 0 0 0 0 0 1 1 0 0
3 3 3 3 3 2 3 3 2 1 1 1 1 0 0 0 0 0 1 1 0 0 0 0 0 0 0 0 0 0 0 0 0 0 0 0 0 0 0 0 0 0 0
1 1 1 1 1 1 1 1 1 0 0 0 0 0 0 0 0 0 0 0 0 0 0 0 0 0 0 0 0 0 0 0 0 0 0 0 0 0 0 0 0 0 0
0 0 0 0 0 0 0 0 0 0 0 0 0 0 0 0 0 0 0 0 0 0 0 0 0 0 0 0 0 0 0 0 0 0 0 0 0 0 0 0 0 0 0
0 0 0 0 0 0 0 0 0 0 0 0 0 0 0 0 0 0 0 0 0 0 0 0 0 0 0 0 0 0 0 0 0 0 0 0 0 0 0 0 0 0 0
0 0 0 0 0 0 0 0 0 0 0 0 0 0 0 0 0 0 0 0 0 0 0 0 0 0 0 0 0 0 0 0 0 0 0 0 0 0 0 0 0 0 0
0 0 0 0 0 0 0 0 0 0 0 0 0 0 0 0 0 0 0 0 0 0 0 0 0 0 0 0 0 0 0 0 0 0 0 0 0 0 0 0 0 0 0
0 0 0 0 0 0 0 0 0 0 0 0 0 0 0 0 0 0 0 0 0 0 0 0 0 0 0 0 0 0 0 0 0 0 0 0 0 0 0 0 0 0 0
0 0 0 0 0 0 0 0 0 0 0 0 0 0 0 0 0 0 0 0 0 0 0 0 0 0 0 0 0 0 0 0 0 0 0 0 0 0 0 0 0 0 0
0 0 0 0 0 0 0 0 0 0 0 0 0 0 0 0 0 0 0 0 0 0 0 0 0 0 0 0 0 0 0 0 0 0 0 0 0 0 0 0 0 0 0
0 0 0 0 0 0 0 0 0 0 0 0 0 0 0 0 0 0 0 0 0 0 0 0 0 0 0 0 0 0 0 0 0 0 0 0 0 0 0 0 0 0 0
0 0 0 0 0 0 0 0 0 0 0 0 0 0 0 0 0 0 0 0 0 0 0 0 0 0 0 0 0 0 0 0 0 0 0 0 0 0 0 0 0 0 0
0 0 0 0 0 0 0 0 0 0 0 0 0 0 0 0 0 0 0 0 0 0 0 0 0 0 0 0 0 0 0 0 0 0 0 0 0 0 0 0 0 0 0
Wind_Speed
3 3 3 3 5 5 5 4 5 4 2 1 2 1 1 2 5 6 6 10 9 8 7 6 5 4 3 3 2 3 3 2 2 2 1 1 0 1 2 2 2 2 2
2 1 2 2 2 2 3 3 3 1 1 0 1 2 3 3 5 5 6 7 9 9 9 8 8 7 6 5 4 3 3 2 1 1 1 1 0 0 1 1 1 1 1
2 1 1 1 2 1 2 1 1 1 1 1 2 2 3 4 5 5 4 5 5 9 10 9 9 8 8 7 6 5 4 4 4 3 3 3 2 2 2 2 2 2 2
1 1 1 2 2 1 1 1 1 1 1 2 2 2 3 3 3 3 3 4 4 5 7 10 10 9 9 8 8 7 7 6 6 6 6 6 5 4 4 4 4 4 4
1 1 2 2 2 2 2 2 1 2 2 2 2 2 2 2 2 3 3 3 4 5 5 8 10 10 9 9 9 8 8 8 8 7 8 7 7 7 6 5 4 4 4
1 0 1 1 1 1 1 1 2 2 2 2 2 2 2 2 2 2 3 3 3 4 5 5 4 6 10 10 10 10 9 9 8 9 9 9 9 8 8 8 7 6 5
1 1 0 0 1 0 1 2 2 3 2 2 2 2 1 2 2 2 2 3 3 4 4 4 3 3 4 9 10 10 9 9 8 8 8 8 7 7 7 7 6 5 5
2 1 1 1 0 1 1 1 2 2 2 2 2 2 2 1 1 2 2 3 3 3 4 4 4 3 4 4 7 9 9 8 8 7 7 7 6 6 5 5 5 5 5
4 4 3 2 2 2 2 1 1 2 2 1 1 1 2 2 2 1 2 3 3 3 3 3 4 4 5 4 4 8 9 8 7 7 6 6 5 5 5 5 5 5 5
6 5 5 4 4 3 3 3 2 1 2 1 1 1 1 2 3 2 2 2 3 3 3 3 4 4 5 5 6 8 8 7 7 6 6 6 6 6 6 5 5 5 6
7 7 6 5 5 4 5 4 4 4 2 2 1 1 1 1 1 2 3 2 2 2 3 4 3 3 4 4 4 5 7 6 6 6 6 6 6 7 6 6 6 6 6
5 7 7 6 6 5 6 5 5 5 4 3 2 2 1 1 1 1 2 3 2 2 3 2 2 2 2 4 5 6 6 6 5 6 6 6 6 6 7 7 7 7 7
5 6 7 6 6 6 6 5 5 6 5 4 3 2 2 2 1 1 2 2 3 2 2 1 2 1 3 4 3 5 6 5 4 4 4 5 6 6 7 7 8 8 9
5 6 6 6 6 6 6 6 5 5 5 5 5 4 3 3 3 2 2 2 2 2 2 2 2 2 2 3 3 2 4 6 5 3 3 4 5 6 7 7 8 8 9
5 6 6 6 6 7 7 6 5 6 5 5 5 5 4 3 3 3 2 2 1 2 2 2 2 3 1 2 3 1 3 7 7 5 3 3 3 4 5 6 6 7 8
6 6 6 6 6 7 7 6 6 6 6 5 5 6 5 4 3 3 2 2 2 1 2 2 2 3 2 1 3 1 2 8 8 6 5 3 2 2 3 4 5 6 6
6 6 6 6 7 7 6 6 6 6 6 6 6 6 6 6 4 4 3 4 4 3 3 3 2 3 2 1 1 1 2 3 5 8 7 5 4 2 1 2 3 4 5
6 6 6 7 7 7 6 6 6 6 6 6 6 6 6 6 6 5 4 4 3 2 3 3 2 2 1 1 1 2 2 2 4 9 9 8 6 5 3 1 0 1 3
6 6 6 6 6 6 6 6 6 6 6 6 6 6 6 6 6 5 5 4 3 3 2 2 2 1 1 0 0 2 1 0 1 7 9 9 8 7 6 4 2 2 2
6 6 6 6 6 7 7 6 5 5 5 5 6 6 7 7 6 6 5 6 4 3 2 1 1 1 1 1 1 2 1 1 1 2 3 6 9 9 8 6 5 4 2
6 5 5 6 6 7 7 6 4 5 4 5 5 5 5 6 7 6 5 5 5 4 3 2 2 2 2 2 2 2 2 1 1 1 1 1 4 4 5 6 7 6 4
5 5 5 7 7 7 9 11 8 4 4 3 3 3 4 3 3 3 4 4 4 4 4 3 3 3 3 3 3 3 2 2 1 1 1 1 2 3 4 4 7 7 6
4 4 5 6 7 7 10 11 11 4 3 3 3 2 4 6 5 4 2 1 1 1 1 1 3 3 2 3 3 4 3 2 2 2 1 1 1 1 2 4 10 9 8
3 4 5 6 6 7 9 10 11 3 2 3 4 5 5 6 7 7 5 3 1 0 1 1 1 2 2 2 3 3 4 4 2 1 0 1 0 1 1 3 9 9 8
3 3 4 5 5 5 7 8 9 3 1 4 5 6 5 5 7 9 5 4 4 3 1 2 3 4 5 6 3 3 4 3 2 1 1 1 1 1 1 2 4 9 9
3 4 5 5 5 5 5 8 10 3 3 3 4 5 8 6 6 8 5 5 5 5 6 4 4 6 6 6 6 4 3 3 2 2 2 1 1 1 1 1 1 3 5
Wind_Direction
196 182 191 178 193 191 189 204 215 212 210 250 216 189 68 82 93 103 116 119 114 110 110 109 106 107 108 113 118 120 125 132 133 143 142 141 322 302 301 302 288 279 283
180 194 192 189 215 188 180 205 211 176 167 66 22 34 48 55 78 96 109 110 104 102 99 97 96 94 92 91 90 93 95 95 96 97 98 97 84 342 346 331 310 300 301
161 188 194 203 253 217 174 176 213 153 167 115 63 45 54 50 57 71 93 110 107 95 93 92 90 88 87 87 84 81 78 76 73 70 69 66 59 59 46 27 9 359 348
103 180 235 228 231 232 203 173 162 118 107 93 77 61 75 74 69 74 85 101 110 106 96 92 88 84 82 80 77 76 73 74 72 70 69 63 60 58 55 49 34 23 14
22 183 234 248 237 216 183 204 152 135 142 127 116 108 95 93 104 110 102 96 101 111 109 99 93 85 81 77 74 72 70 70 71 72 68 64 59 54 50 46 37 33 30
332 194 190 235 244 209 148 124 116 126 134 138 128 98 82 95 95 110 120 108 102 106 110 116 111 91 83 79 75 72 70 67 67 67 65 62 58 54 51 49 43 35 27
21 18 129 188 261 185 142 129 129 133 135 125 113 104 78 75 77 75 90 104 100 95 101 103 100 101 97 82 75 73 67 65 63 62 59 55 54 51 48 44 41 34 30
48 31 56 114 114 159 123 137 143 151 162 168 161 161 157 129 74 68 73 79 79 77 88 95 98 91 91 94 79 73 65 58 56 55 53 50 47 42 39 37 28 20 15
50 48 51 66 63 76 92 95 136 165 168 178 91 156 166 160 135 85 68 72 74 66 70 84 90 88 94 87 83 69 67 57 52 45 43 38 34 30 19 17 15 16 12
49 50 50 57 61 66 71 70 62 68 131 149 107 45 61 110 145 133 95 80 83 74 68 69 76 77 83 92 87 79 72 61 50 43 38 34 29 27 23 18 12 9 5
47 47 49 56 57 60 65 63 64 63 66 63 71 85 67 50 86 140 148 143 102 79 73 68 66 71 79 93 98 87 80 68 55 47 42 38 33 27 21 15 10 8 3
50 45 50 51 52 53 55 59 60 67 68 65 55 57 79 90 106 111 131 151 135 110 92 80 82 85 85 83 88 98 95 83 70 56 46 38 31 24 18 13 12 8 2
56 47 51 52 55 56 56 57 61 61 60 62 57 48 50 52 64 88 115 130 136 136 125 128 107 89 94 100 105 112 122 113 94 74 55 40 32 26 21 18 19 16 12
63 55 58 59 58 61 63 62 65 61 58 57 56 51 52 41 39 51 80 110 141 147 134 134 118 98 87 115 122 138 153 150 139 121 88 59 43 35 31 29 28 23 15
72 66 64 67 66 66 66 64 64 62 57 53 51 49 53 49 42 38 45 68 123 155 148 149 117 102 97 122 149 169 158 172 162 156 133 97 63 46 38 31 28 24 17
69 70 67 67 67 67 67 68 65 63 66 58 52 46 42 36 37 40 41 31 32 73 111 113 109 111 96 124 167 200 198 176 174 171 168 153 120 72 47 35 28 23 16
65 65 63 64 62 59 60 66 67 65 66 60 56 54 47 36 27 26 31 34 36 52 89 90 102 125 141 168 162 265 236 176 169 181 184 178 166 147 112 43 25 22 16
65 66 64 66 67 63 58 62 69 66 65 63 57 51 45 43 33 26 25 37 40 56 87 95 108 127 158 175 216 261 258 145 170 185 192 190 186 183 180 182 350 1 353
70 66 64 65 66 64 62 60 63 67 67 64 60 58 49 42 34 24 24 21 26 46 65 106 126 123 129 114 303 303 326 32 226 170 188 200 200 196 194 194 211 254 300
63 65 65 65 62 59 52 49 58 64 66 64 60 57 51 44 31 9 32 25 25 20 30 70 98 93 77 32 30 328 345 343 321 164 182 185 193 197 199 196 210 228 250
61 61 64 64 61 56 42 31 44 76 72 71 74 76 73 70 57 36 39 26 21 17 21 32 58 60 45 33 18 330 7 338 333 18 353 189 166 183 195 205 212 221 227
61 62 66 67 62 54 35 30 27 43 64 70 82 97 113 98 87 72 55 41 31 31 25 17 34 39 30 23 4 343 354 350 326 316 345 287 160 180 188 185 195 203 214
77 77 80 82 77 52 33 25 14 3 52 50 48 47 64 68 40 25 8 264 245 239 251 21 21 14 16 17 359 339 335 319 288 274 274 278 211 187 187 167 183 199 210
72 76 81 83 81 54 30 18 357 345 75 72 58 55 66 56 32 9 348 3 26 154 222 208 13 351 11 3 342 313 304 307 297 293 4 296 296 189 154 161 192 204 214
80 82 84 85 86 63 29 16 359 323 99 87 74 53 60 69 35 11 360 6 18 12 334 251 260 272 280 280 282 317 325 339 341 340 4 351 337 332 203 194 200 207 220
92 89 89 89 89 78 37 22 3 356 51 82 97 90 66 54 32 19 6 7 13 358 342 321 278 262 253 253 237 228 284 326 340 339 354 7 351 343 326 270 227 194 217